Location: Newark
(14.6670°N, 74.3000°E)
Time: 16:24:42
(UTC+00:00)

LightSail 2 - Visible Passes

Search period start: 22 October 2019 00:00
Search period end: 01 November 2019 00:00
Orbit: 707 x 722 km, 24.0° (Epoch: 22 October)

Date Brightness Start Highest point End Pass type
(mag) Time Alt. Az. Time Alt. Az. Time Alt. Az.
22 Oct 5.0 14:12:21 10° WNW 14:17:31 87° SSW 14:18:01 73° ESE visible
23 Oct 5.2 13:14:45 10° WNW 13:19:52 71° NNE 13:24:18 14° ESE visible
23 Oct 7.1 15:00:39 10° W 15:03:20 26° WSW 15:03:20 26° WSW visible
24 Oct 5.7 14:02:47 10° W 14:07:47 52° SSW 14:09:42 34° SSE visible
25 Oct 5.4 13:05:03 10° WNW 13:10:09 72° SSW 13:15:18 10° ESE visible
25 Oct 7.2 14:51:46 10° WSW 14:55:11 21° SSW 14:55:11 21° SSW visible
26 Oct 6.7 13:53:32 10° W 13:57:58 29° SSW 14:01:41 13° SSE visible
27 Oct 6.3 12:55:32 10° W 13:00:21 41° SSW 13:05:11 10° SE visible
27 Oct 7.8 14:44:15 10° SW 14:45:47 11° SSW 14:47:18 10° S visible
28 Oct 7.6 13:44:55 10° WSW 13:48:07 17° SSW 13:51:21 10° SSE visible
31 Oct 7.7 00:17:31 10° S 00:20:33 15° SSE 00:23:33 10° ESE visible
31 Oct 8.0 23:22:01 10° SSE 23:22:50 10° SSE 23:23:38 10° SE visible
